Location: Famechon
(49.7599°N, 2.0615°E)
Time: 22:51:49
(UTC+00:00)

In-Cosmos 22 Rocket - Pass Details

Date: 03 February 2023
Orbit: 789 x 888 km, 81.2° (Epoch: 01 April)

Event Time Altitude Azimuth Distance (km) Brightness Sun altitude
Rises 18:30:19 0° 189° (S) 3,467 7.6 -16.4°
Reaches altitude 10° 18:32:44 10° 189° (S) 2,540 6.9 -16.8°
Maximum altitude 18:38:33 88° 103° (ESE) 897 4.3 -17.7°
Drops below altitude 10° 18:44:26 10° 13° (NNE) 2,562 6.5 -18.7°
Sets 18:46:53 0° 13° (NNE) 3,500 7.3 -19.1°
